www.pogodaiklimat.ru

Погода и климат >> Архив погоды >> Китай >> Ляонин >> Куаньдянь


ПОГОДА в Куаньдяне

  • Прогноз погоды в Куаньдяне
  • Монитор погоды в Куаньдяне

АРХИВ ПОГОДЫ в Куаньдяне

Время (UTC), дата Ветер
(напр.,м/с)
 
Видим.   Явления Облачность Т
(С)
Тd
(С)
f
(%)
Тe
(С)
Тes
(С)
Комфортность P
(гПа)
Po
(гПа)
Тmin
(С)
Tmax
(С)
R
(мм)
R24
(мм)
S
(см)
18 14.07 Ю 1 4500 м дымка ?/? +19.6 +18.3 92 +23 +23 комфорт 1004.8 975.0 +26.7
21 14.07 ЮЗ 1 3400 м дымка н/о +19.6 +18.4 93 +23 +23 комфорт 1005.9 975.7
00 15.07 Ю 1 н/о дымка 10/10 1000 м
[]
+20.9 +19.0 89 +26 +26 душно 1007.1 977.0
03 15.07 Ю 1 10 км 9/9 600 м
[]
+23.3 +19.0 77 +30 +32 очень
душно
1007.3 977.4
06 15.07 З 3 16 км 10/10 1000 м
[]
+25.3 +19.0 68 +30 +30 душно 1006.5 976.9 +19.4
09 15.07 З 1 14 км {ливн. осадки} 10/10 1000 м
[]
+22.8 +18.6 77 +29 +29 очень
душно
1007.1 977.2
12 15.07 ЮВ 1 8000 м {ливн. осадки} 10/10 1000 м
[]
+21.0 +19.3 90 +27 +27 душно 1008.5 978.4 0.1
18 15.07 В 1 3900 м дымка ?/? +19.0 +18.0 94 +22 +22 комфорт 1009.8 979.4 +26.6
21 15.07 ЮВ 1 7000 м н/о +19.3 +18.1 93 +22 +22 комфорт 1011.0 980.6
00 16.07 Ю 1 16 км 9/9 1000 м
[]
+22.4 +18.4 78 +28 +29 душно 1011.8 981.7
03 16.07 З 2 19 км 10/10 1000 м
[]
+24.1 +18.7 72 +29 +29 душно 1011.3 981.4
06 16.07 З 3 22 км 9/9 1000 м
[]
+26.8 +18.7 61 +32 +33 очень
душно
1010.1 980.5 +18.9
09 16.07 З 3 25 км 5/5 1000 м
[]
+27.5 +19.0 60 +33 +34 очень
душно
1008.9 979.4
12 16.07 З 1 24 км 8/8 1000 м
[]
+23.2 +18.3 74 +29 +29 душно 1010.5 980.5
18 16.07 штиль 0 10 км ?/? +18.8 +17.3 91 +20 +20 1011.1 980.7 +27.6
21 16.07 ЮЗ 1 6000 м дымка н/о +19.3 +18.0 92 +22 +22 комфорт 1011.2 980.8
00 17.07 Ю 1 6000 м дымка 10/10 1000 м
[]
+22.1 +19.5 85 +28 +28 душно 1011.5 981.4
03 17.07 ЮЗ 1 10 км 10/10 1000 м
[]
+25.1 +19.2 70 +30 +30 душно 1010.7 980.9
06 17.07 З 4 11 км 10/10 1000 м
[]
+24.5 +20.0 76 +30 +30 очень
душно
1010.6 980.8 +18.7
09 17.07 З 2 7000 м слаб. дождь 10/10 1000 м
[]
+23.4 +20.2 82 +31 +31 очень
душно
1010.3 980.4
12 17.07 Ю 1 н/о {дождь} 10/10 1000 м
[]
+22.3 +19.7 85 +28 +28 душно 1010.9 980.8 0.0
18 17.07 З 1 2900 м дымка ?/? +20.8 +19.6 93 +26 +26 душно 1010.6 980.6 +25.6
21 17.07 Ю 1 3800 м дымка н/о +20.9 +19.7 93 +27 +27 душно 1010.6 980.4
00 18.07 С 1 7000 м дымка 10/10 1000 м
[]
+21.9 +19.6 87 +27 +27 душно 1010.3 980.2
03 18.07 З 1 13 км 10/10 1000 м
[]
+23.9 +18.8 73 +29 +29 душно 1010.3 980.4
06 18.07 Ю 1 16 км 8/8 1000 м
[]
+26.7 +20.1 67 +33 +36 очень
душно
1008.4 978.8 +20.6
09 18.07 З 2 14 км 4/4 1000 м
[]
+26.9 +20.3 67 +33 +35 очень
душно
1007.5 978.0
12 18.07 В 1 10 км ясно +23.2 +20.2 83 +30 +30 очень
душно
1008.3 978.4
18 18.07 штиль 0 н/о дымка ?/? +19.4 +18.2 93 +21 +21 комфорт 1007.7 977.4 +27.5
21 18.07 С 1 100 м туман н/о +19.5 +18.7 95 +23 +23 комфорт 1008.3 978.0
00 19.07 Ю 2 н/о дымка ясно +22.6 +20.9 90 +30 +38 очень
душно
1008.6 978.6
03 19.07 С 2 23 км 3/3 600 м
[]
+28.0 +20.0 62 +34 +48 очень
душно
1007.3 977.9
06 19.07 С 1 24 км 3/3 600 м
[]
+30.8 +17.8 46 +35 +47 очень
душно
1005.9 976.8 +19.0
09 19.07 З 2 24 км 3/3 600 м
[]
+30.6 +19.6 52 +37 +39 очень
душно
1005.2 976.1
12 19.07 В 1 15 км ясно +25.2 +21.3 79 +32 +32 очень
душно
1006.1 976.5
18 19.07 З 1 3600 м дымка ?/? +21.6 +19.9 90 +27 +27 душно 1005.4 975.4 +31.4
21 19.07 З 1 7000 м дымка н/о +20.5 +19.2 92 +26 +26 душно 1005.9 975.8
00 20.07 ЮВ 3 13 км ясно +27.5 +20.3 65 +34 +41 очень
душно
1004.8 975.4
03 20.07 В 2 24 км 3/3 600 м
[]
+31.1 +19.5 50 +37 +50 очень
душно
1004.1 975.1
06 20.07 ЮЗ 3 30 км 6/6 600 м
[]
+33.1 +19.2 44 +38 +43 очень
душно
1001.8 973.0 +20.4
09 20.07 В 2 30 км 9/9 1000 м
[]
+32.8 +20.3 48 +39 +40 очень
душно
1000.4 971.7
12 20.07 В 1 30 км 9/9 1000 м
[]
+27.9 +21.9 70 +36 +36 очень
душно
1001.0 971.8
18 20.07 ЮВ 1 26 км ?/? +24.4 +21.7 85 +31 +31 очень
душно
1000.3 970.8 +34.5
21 20.07 Ю 1 17 км н/о +23.6 +21.3 87 +30 +30 очень
душно
1000.4 970.8
00 21.07 З 2 30 км 10/10 1000 м
[]
+25.0 +22.1 84 +32 +32 очень
душно
1001.0 971.5
03 21.07 С 4 н/о слаб. ливневой дождь 10/10 600 м
[]
+21.8 +19.2 85 +27 +27 душно 1003.2 973.3
06 21.07 З 2 11 км слаб. ливневой дождь 10/10 600 м
[]
+20.5 +19.3 93 +25 +25 комфорт 1002.2 972.2 +20.4 17
09 21.07 ЮЗ 1 30 км {ливн. осадки} 6/6 600 м
[]
+22.2 +19.7 86 +28 +29 душно 1003.1 973.3
12 21.07 штиль 0 15 км {ливн. осадки} ясно +20.4 +18.5 89 +24 +24 комфорт 1003.9 973.9 4

 

Местоположение метеостанции Куаньдянь (Ляонин, Китай): широта 40.72 долгота 124.78 высота над уровнем моря 261 м.

В архиве по умолчанию представлена погода в Куаньдяне за последнюю неделю. Архивные данные за месяц целиком и за предыдущие месяцы, начиная с января 2011 года, Вы можете получить, выбрав интересующий диапазон дат из раскрывающегося списка и нажав кнопку "Ввод!".


*Определитесь, кто Вы:
робот инопланетянин человек

Внимание! Время в таблицах - всемирное. Для получения местного времени необходимо прибавить поправку, которая равна 8 ч.

Смотрите также архив погоды в соседних городах и на ближайших метеорологических станциях:

Погода на Плотине Сапунг (КНДР) (33 км)
Погода в Синыйджу (КНДР) (77 км)
Погода в Даньдуне (Ляонин, Китай) (84 км)
Погода в Кусонге (КНДР) (91 км)
Погода в Бэньси (Ляонин, Китай) (107 км)
Погода в Цзиане (Цзяньси, Китай) (123 км)
Погода в Хыйчхоне (КНДР) (139 км)
Погода в Анджу (КНДР) (143 км)
Погода в Цинъюане (Гуандун, Китай) (154 км)
Погода в Шэньяне (Ляонин, Китай) (155 км)

Пояснения к столбцам:

Ветер - указаны скорость ветра в м/с - средняя за 10 мин, порывы в срок и между сроками (в фигурных скобках) и направление, откуда дует ветер: С - северный, СВ - северо-восточный, В - восточный, ЮВ - юго-восточный, Ю - южный, ЮЗ - юго-западный, З - западный, СЗ - северо-западный.
Видимость - горизонтальная дальность видимости в метрах или километрах. При видимости от 1 до 10 км при отсутствии осадков обычно наблюдается дымка, при ухудшении видимости до 1 км и менее - туман. В сухую погоду видимость может ухудшаться дымом, пылью или мглою.
Явления - указаны атмосферные явления, наблюдавшиеся в срок или в последний час перед сроком; фигурными скобками обозначены явления, наблюдавшиеся между сроками (за 1-3 часа до срока); квадратными скобками обозначены град или гололедные отложения с указанием их диаметра в мм.
Облачность - указаны через наклонную черту общая и нижняя облачность в баллах и высота нижней границы облаков в метрах; квадратными скобками обозначены формы облаков: Ci - перистые, Cs - перисто-слоистые, Cc - перисто-кучевые, Ac - высококучевые, As - высокослоистые, Sc - слоисто-кучевые, Ns - слоисто-дождевые, Cu - кучевые, Cb - кучево-дождевые. Подробнее классификацию облаков см. в Атласе облаков (PDF).
T - Температура воздуха - температура, измеренная на высоте 2 м над землей.
Td - Температура точки росы - температура, при понижении до которой содержащийся в воздухе водяной пар достигнет насыщения.
f - Относительная влажность воздуха - влажноcть воздуха, измеренная на высоте 2 м над землей.
Te - Эффективная температура - температура, которую ощущает одетый по сезону человек в тени. Характеристика душности погоды. При расчете учитывается влияние влажности воздуха и скорости ветра на теплоощущения человека.
Tes - Эффективная температура на солнце - температура, которую ощущает человек, с поправкой на солнечный нагрев. Характеристика знойности погоды. Зависит от высоты солнца над горизонтом, облачности и скорости ветра. Ночью, в пасмурную погоду, а также при ветре 12 м/с и более поправка равна нулю.
P - Атмосферное давление - приведенное к уровню моря атмосферное давление.
Po - Атмосферное давление - измеренное на уровне метеостанции атмосферное давление.
Tmin - Минимальная температура - минимум температуры воздуха на высоте 2 м над землей.
Tmax - Максимальная температура - максимум температуры воздуха на высоте 2 м над землей.
R - Количество осадков - Количество выпавших осадков за период времени, мм. При наведении курсора мыши на число - период времени, за который выпало указанное количество осадков.
R24 - Количество осадков - Количество выпавших осадков за 24 часа, мм.
S - Снежный покров - Высота снежного покрова, см. При наведении курсора мыши на число - состояние снежного покрова и степень покрытия местности в баллах.